Miscellaneous Local Product
Issued by NWS Hastings, NE

Home | Current Version | Previous Version | Graphics & Text | Print | Product List | Glossary On
Versions: 1 2 3 4 5 6 7 8 9 10 11 12 13 14 15 16 17 18 19 20 21 22 23 24 25 26 27 28 29 30 31 32 33 34 35 36 37 38 39 40 41 42 43 44 45 46 47 48 49 50
000
AXUS43 KGID 310702
MISGRI

GID CWA HOURLY WEATHER ROUNDUP
NATIONAL WEATHER SERVICE HASTINGS NE
200 AM CDT TUE MAR 31 2015

NOTE: "FAIR" INDICATES FEW OR NO CLOUDS BELOW 12,000 FEET WITH NO
SIGNIFICANT WEATHER AND/OR OBSTRUCTIONS TO VISIBILITY.

...SOUTH CENTRAL NEBRASKA...

CITY           SKY/WX    TMP DP  RH WIND       PRES   REMARKS
GRAND ISLAND   CLEAR     42  28  57 W3        30.00S
HASTINGS       CLEAR     46  25  43 N3        29.99S
KEARNEY        CLEAR     43  19  39 NW8       30.01R
ORD            CLEAR     35  24  64 SW6       29.99S WCI  30
YORK           CLEAR     41  32  70 NW9       29.98S
AURORA         CLEAR     45  29  53 N10       29.99S
LEXINGTON      CLEAR     38  23  55 NW6       30.02F WCI  33
HOLDREGE       CLEAR     40  21  47 NW3       30.01R
HEBRON         CLEAR     44  30  56 CALM      29.98S

...NEBRASKA PANHANDLE...

CITY           SKY/WX    TMP DP  RH WIND       PRES   REMARKS
CHADRON        CLEAR     37  28  70 SW9       30.05F WCI  30
ALLIANCE       CLEAR     35  25  66 CALM      30.06F
SCOTTSBLUFF    CLEAR     42  27  55 N5        30.07S
SIDNEY         CLEAR     32  25  75 W7        30.08F WCI  26

...WESTERN AND NORTH CENTRAL NEBRASKA...

CITY           SKY/WX    TMP DP  RH WIND       PRES   REMARKS
VALENTINE      CLEAR     35  25  66 W5        30.01F WCI  31
AINSWORTH      CLEAR     40  27  58 W3        30.01S
ONEILL         CLEAR     43  29  59 W5        30.00S
BROKEN BOW     CLEAR     38  23  55 CALM      30.02R
IMPERIAL         N/A     46  22  38 CALM      30.06R
NORTH PLATTE   CLEAR     36  27  69 CALM      30.04S
MCCOOK         CLEAR     47  22  37 CALM      30.02F

...EASTERN NEBRASKA...

CITY           SKY/WX    TMP DP  RH WIND       PRES   REMARKS
NORFOLK        CLEAR     46  32  58 SW3       29.98R
SO SIOUX CITY  CLEAR     42  29  59 W5        29.96S
TEKAMAH        CLEAR     47  29  49 N8        29.96R
COLUMBUS       CLEAR     48  28  46 N7        29.99R
ALBION         CLEAR     38  29  68 CALM      29.99S
OMAHA EPPLEY   CLEAR     49  32  52 N8        29.94R
MILLARD        CLEAR     58  33  38 CALM      29.95R
LINCOLN        CLEAR     44  31  60 CALM      29.98R
NEBRASKA CITY  CLEAR     55  27  33 NW8       29.95R
BEATRICE       CLEAR     42  32  67 CALM      29.96S
FALLS CITY     CLEAR     52  38  58 W6        29.94S

...NORTHERN KANSAS...

CITY           SKY/WX    TMP DP  RH WIND       PRES   REMARKS
GOODLAND       CLEAR     42  22  44 N3        30.06S
HILL CITY      CLEAR     44  23  43 CALM      30.02R
NORTON         SUNNY     48  19  32 CALM      30.01R
PHILLIPSBURG   CLEAR     52  25  35 CALM      30.00R
SMITH CENTER   CLEAR     55  27  33 NE13      29.98F
BELOIT         CLEAR     46  30  53 NE8       29.95F
HAYS           CLEAR     54  25  32 N10       29.99R
RUSSELL        CLEAR     47  29  49 NW9       29.95R
CONCORDIA      CLEAR     50  38  63 NW5       29.96R
SALINA         CLEAR     49  37  63 CALM      29.93S
TOPEKA         CLEAR     51  38  60 CALM      29.96R



USA.gov is the U.S. government's official web portal to all federal, state and local government web resources and services.